Flag for Brazil Weather past 2 weeks in Santa María, Rio Grande do Sul, Brazil

Now
54 °F

Clear.


Feels Like: 52 °F
Forecast: 54 / 69 °F
Wind: 7 mph from East

Location: Porto Alegre Aero-Porto

Current Time: Jul 29, 2014 at 1:56:22 AM

Latest Report: Jul 29, 2014 at 1:00 AM


Visibility: 6 mi

Pressure: 30.33 "Hg

Humidity: 88%

Dew point: 50 °F

Location of Santa MaríaLocation

Historic Weather in Santa María — Graph

°F

Santa María temperature yesterday

Maximum temperature yesterday: 64 °F (at 2:00 PM)
Minimum temperature yesterday: 43 °F (at 6:00 AM)
Average temperature yesterday: 54 °F

Past Weeks' High & Low Weather Summary

 TemperatureHumidityPressure
High81 °F (Jul 22, 2:00 PM)100% (Jul 14, 1:00 AM)30.48 "Hg (Jul 14, 1:00 AM)
Low39 °F (Jul 18, 7:00 AM)32% (Jul 22, 2:00 PM)29.65 "Hg (Jul 23, 7:00 PM)
Average58 °F82%30.14 "Hg
* Reported Jul 14 1:00 AM — Jul 29 1:00 AM, Santa María, Weather by CustomWeather, © 2014

Note: Actual official high and low records may vary slightly from our data, if they occured in-between our weather recording intervals... More about our weather records

Advertising

Santa María weather history for previous 24 hours

 ConditionsComfort  
Time TempWeatherWind HumidityBarometerVisibility
1:00 AM
Jul 29
54 °FClear.7 mph88%30.33 "Hg6 mi
12:00 AM55 °FClear.12 mph88%30.36 "Hg10 mi
11:00 PM
Jul 28
55 °FClear.10 mph88%30.36 "Hg10 mi
10:00 PM55 °FClear.13 mph88%30.36 "Hg10 mi
9:00 PM55 °FClear.13 mph88%30.36 "Hg10 mi
8:00 PM55 °FClear.12 mph88%30.39 "Hg10 mi
7:00 PM57 °FClear.13 mph82%30.36 "Hg10 mi
6:00 PM59 °FClear.13 mph77%30.36 "Hg10 mi
5:00 PM63 °FClear.14 mph68%30.36 "Hg10 mi
4:00 PM64 °FSunny.14 mph64%30.33 "Hg10 mi
3:00 PM64 °FSunny.14 mph64%30.36 "Hg10 mi
2:00 PM64 °FSunny.13 mph60%30.39 "Hg10 mi
1:00 PM63 °FSunny.13 mph64%30.42 "Hg10 mi
12:00 PM61 °FSunny.13 mph68%30.45 "Hg10 mi
11:00 AM57 °FSunny.14 mph77%30.45 "Hg10 mi
10:00 AM54 °FSunny.7 mph82%30.48 "Hg10 mi
9:00 AM52 °FSunny.5 mph82%30.45 "Hg10 mi
8:00 AM45 °FSunny.5 mph93%30.45 "Hg10 mi
7:00 AM43 °FSunny.2 mph100%30.42 "Hg10 mi
6:00 AM43 °FClear.2 mph100%30.42 "Hg10 mi
5:00 AM45 °FClear.5 mph93%30.42 "Hg10 mi
4:00 AM45 °FClear.5 mph93%30.42 "Hg10 mi
3:00 AM46 °FClear.6 mph87%30.42 "Hg10 mi
2:00 AM48 °FClear.7 mph82%30.42 "Hg10 mi
1:00 AM48 °FClear.6 mph82%30.45 "Hg10 mi
Weather by CustomWeather, © 2014

See weather overviewHow to use our weather pages